[[{"header":{"parameterUnit":"m.s-1","parameterCategory":1,"la1":30.2991,"la2":30.254,"lo1":-89.0895,"lo2":-89.0444,"dy":0.0017,"dx":0.0017,"nx":28,"ny":28,"refTime":"2024-07-20T03:00:00:Z","depth":0,"parameterNumber":2,"parameterNumberName":"U-component_of_WINDS"},"data":[0,0,0,0,0,0,0,0,0,0,0,0,0,0,0,0,0,0,0,0,0,0,0,0,0,0,0,0,0,0,0,0,0,0,0,0,0,0,0,0,0,0,0,0,0,0,0,0,0,0,0,0,0,0,0,0,0,0,3.5209,3.5211,0,3.5321,3.5323,3.5324,3.5278,3.5275,3.5273,3.527,3.5384,3.5389,3.5395,0,0,0,0,0,0,0,0,0,0,0,0,0,3.4953,3.4958,3.5209,3.5211,3.5212,3.5321,3.5323,3.5324,3.5278,3.5275,3.5272,3.5269,3.5382,3.5389,3.5395,0,0,0,0,0,0,0,0,0,0,0,0,0,3.5064,3.4959,3.5209,3.5202,3.5203,3.5321,3.5323,3.5325,3.5279,3.5275,3.5271,3.5267,3.538,3.5388,3.5396,3.5527,0,0,3.5421,3.5425,0,0,0,0,0,0,0,0,3.5058,3.5074,3.5202,3.5203,3.5204,3.5282,3.5274,3.5392,3.528,3.525,3.527,3.5266,3.5353,3.5363,3.5393,3.5532,3.5537,3.5422,3.5427,3.5431,3.5433,0,0,0,0,0,0,0,3.505,3.5069,3.5254,3.5204,3.5205,3.5193,3.5204,3.5296,3.5323,3.5253,3.5249,3.5263,3.5353,3.5385,3.5395,3.5539,3.5422,3.5429,3.5434,3.5438,3.5787,3.5791,0,0,0,0,0,0,3.5043,3.5063,3.525,3.5257,3.512,3.5201,3.5214,3.5261,3.5321,3.5327,3.5267,3.5261,3.5373,3.5386,3.5399,3.5553,3.5431,3.5438,3.5443,3.5783,3.5788,3.5793,0,0,0,0,0,0,3.5037,3.506,3.5245,3.5159,3.5182,3.5209,3.5263,3.5265,3.5297,3.5332,3.5336,3.5295,3.537,3.5388,3.5495,3.5557,3.5442,3.545,3.5778,3.5784,3.579,3.5864,0,0,0,0,0,0,3.503,3.5058,3.5109,3.5161,3.5186,3.534,3.5267,3.527,3.5312,3.5305,3.536,3.5365,3.5369,3.5483,3.5503,3.5566,3.5456,3.5772,3.5781,3.5788,3.5857,3.5873,3.5886,0,0,0,0,0,3.5021,3.5126,3.5112,3.5135,3.5251,3.5344,3.5359,3.5361,3.5317,3.5367,3.5389,3.5363,3.5547,3.5494,3.5517,3.5583,3.5768,3.5778,3.5788,3.585,3.5869,3.5886,0,0,0,0,0,0,3.5081,3.5133,3.5118,3.5242,3.5289,3.5336,3.54,3.5382,3.5442,3.5433,3.5433,3.5446,3.5556,3.5581,3.552,3.5711,3.5651,3.5666,3.569,3.5709,3.5724,3.5715,3.5463,0,0,0,0,0,3.5109,3.5181,3.5222,3.5328,3.5352,3.5372,3.5413,3.541,3.5459,3.5478,3.5508,3.5555,3.5623,3.5668,3.5733,3.5861,3.587,3.5917,3.5932,3.5944,3.5956,3.6022,3.6042,3.5825,3.5825,3.5825,0,0,3.5167,3.5204,3.525,3.5341,3.5377,3.545,3.5389,3.547,3.5524,3.549,3.5592,3.5616,3.5669,3.5786,3.5839,3.581,3.6019,3.5957,3.5966,3.5971,3.6034,3.6055,3.6073,3.5831,3.583,3.5829,0,0,3.531,3.5346,3.5437,3.5474,3.5529,3.5541,3.5563,3.5612,3.5626,3.5729,3.5704,3.5768,3.5887,3.5924,3.5958,3.6113,3.609,3.6134,3.6211,3.6276,3.6293,3.6308,3.636,3.6379,3.6147,3.6147,3.6147,0,3.5374,3.5484,3.5486,3.5568,3.5607,3.558,3.5671,3.5707,3.578,3.5807,3.5774,3.5919,3.5953,3.6077,3.6114,3.6145,3.6167,3.6127,3.629,3.6306,3.632,3.6369,3.6389,3.6152,3.6151,3.6151,3.615,0,3.556,3.5636,3.5703,3.5773,3.5821,3.5907,3.592,3.5967,3.5961,3.5976,3.6079,3.6119,3.6189,3.6219,3.6214,3.6342,3.6321,3.629,3.6229,3.6345,3.6391,3.6411,3.6158,3.6157,3.6155,3.6154,0,0,3.5743,3.5812,3.5836,3.5866,3.5924,3.5983,3.6067,3.6136,3.6175,3.6227,3.6295,3.6395,3.6365,3.6404,3.6403,3.6459,3.6575,3.642,3.6421,3.6445,3.6714,3.6736,3.6758,3.6561,3.6565,3.6568,3.6709,0,3.5887,3.6034,3.6037,3.6171,3.624,3.6215,3.6287,3.633,3.6346,3.6406,3.6424,3.6493,3.6451,3.6473,3.6529,3.6549,3.6629,3.654,3.6623,3.6626,3.6607,3.6783,3.6806,3.6937,3.6727,3.673,3.6733,0,3.6075,3.6131,3.6272,3.6317,3.6346,3.6412,3.6473,3.6532,3.6579,3.6587,3.663,3.6619,3.6703,3.6641,3.6755,3.6694,3.6728,3.6743,3.6749,3.6754,3.6684,3.679,3.6979,3.6998,3.6762,3.676,3.6757,0,3.619,3.6302,3.6399,3.6427,3.6483,3.6528,3.6554,3.6597,3.6637,3.6692,3.6717,3.6781,3.6815,3.6864,3.687,3.6825,3.6983,3.6923,3.699,3.6989,3.7022,3.7019,3.7217,3.705,3.7049,3.7049,3.7048,0,3.6349,3.6436,3.6451,3.6511,3.6606,3.6608,3.6702,3.6724,3.6762,3.6824,3.6807,3.6866,3.6872,3.6932,3.6938,3.7029,3.7046,3.7052,3.7052,3.7052,3.7051,3.7073,3.7063,3.7054,3.7053,3.7052,3.7051,0,3.6493,3.6508,3.6612,3.6656,3.6669,3.6737,3.6774,3.683,3.6845,3.6924,3.6942,3.6964,3.7034,3.7045,3.7128,3.7131,3.724,3.7232,3.7224,3.7221,3.7286,3.7279,3.7502,3.753,3.7348,3.7349,3.7351,0,3.6593,3.6658,3.6709,3.6749,3.6777,3.6843,3.6883,3.6887,3.693,3.6987,3.7036,3.7104,3.7158,3.727,3.7293,3.7355,3.7347,3.7421,3.7356,3.7353,3.7344,3.7339,3.7344,3.7432,3.7434,3.7436,3.7437,0,3.6766,3.6769,3.6829,3.689,3.6939,3.6988,3.7034,3.7068,3.7078,3.7126,3.7197,3.7239,3.7322,3.7389,3.745,3.7475,3.7457,3.7458,3.7476,3.7475,3.7466,3.7468,3.7254,3.7452,3.7451,3.7449,3.7449,3.7448,3.6889,3.6945,3.6988,3.7054,3.7089,3.7132,3.7186,3.7206,3.7265,3.7333,3.7332,3.7408,3.7451,3.7532,3.7561,3.762,3.7596,3.7623,3.7629,3.7635,3.764,3.7459,3.7631,3.7631,3.7631,3.763,3.763,0,3.7058,3.7085,3.7146,3.721,3.7261,3.7241,3.729,3.7334,3.7401,3.7443,3.7496,3.7576,3.764,3.7668,3.773,3.7772,3.7765,3.7788,3.7783,3.7788,3.7659,3.7636,3.7792,3.7792,3.7792,3.7792,3.7792,3.7792,3.7153,3.7245,3.7253,3.7361,3.7387,3.7462,3.7491,3.753,3.7563,3.7652,3.7705,3.7723,3.7758,3.7822,3.7879,3.7886,3.7908,3.7934,3.7936,3.7815,3.7798,3.7782,3.776,3.794,3.794,3.806,3.8061,3.8062]},{"header":{"parameterUnit":"m.s-1","parameterCategory":1,"la1":30.2991,"la2":30.254,"lo1":-89.0895,"lo2":-89.0444,"dy":0.0017,"dx":0.0017,"nx":28,"ny":28,"refTime":"2024-07-20T03:00:00:Z","depth":0,"parameterNumber":3,"parameterNumberName":"V-component_of_WINDS"},"data":[0,0,0,0,0,0,0,0,0,0,0,0,0,0,0,0,0,0,0,0,0,0,0,0,0,0,0,0,0,0,0,0,0,0,0,0,0,0,0,0,0,0,0,0,0,0,0,0,0,0,0,0,0,0,0,0,0,0,0.9856,0.9856,0,0.9854,0.9854,0.9854,0.9825,0.9824,0.9824,0.9823,0.982,0.9821,0.9822,0,0,0,0,0,0,0,0,0,0,0,0,0,0.9836,0.9837,0.9856,0.9856,0.9856,0.9854,0.9854,0.9854,0.9825,0.9824,0.9823,0.9823,0.982,0.9821,0.9822,0,0,0,0,0,0,0,0,0,0,0,0,0,0.9841,0.9837,0.9856,0.9842,0.984,0.9854,0.9854,0.9854,0.9825,0.9824,0.9823,0.9822,0.982,0.9821,0.9822,0.9849,0,0,0.9825,0.9825,0,0,0,0,0,0,0,0,0.984,0.9841,0.9844,0.9843,0.9841,0.9839,0.9846,0.9852,0.9826,0.9831,0.9823,0.9822,0.9827,0.9828,0.9829,0.9849,0.9849,0.9825,0.9825,0.9826,0.9826,0,0,0,0,0,0,0,0.984,0.9841,0.9855,0.9844,0.9842,0.9835,0.9835,0.9847,0.9835,0.983,0.9828,0.9828,0.9826,0.9829,0.9829,0.9849,0.9825,0.9825,0.9826,0.9826,0.9889,0.989,0,0,0,0,0,0,0.9842,0.9841,0.9855,0.9855,0.9838,0.9836,0.9836,0.9841,0.9835,0.9833,0.9829,0.9827,0.9828,0.9828,0.9829,0.986,0.9826,0.9826,0.9827,0.9887,0.9889,0.989,0,0,0,0,0,0,0.9842,0.9843,0.9856,0.9848,0.9849,0.9838,0.9844,0.9841,0.9843,0.9834,0.9832,0.9834,0.9827,0.9828,0.9844,0.9859,0.9827,0.9828,0.9886,0.9888,0.9889,0.9922,0,0,0,0,0,0,0.9841,0.9843,0.9854,0.9848,0.9849,0.9871,0.9844,0.9842,0.9845,0.9842,0.9838,0.9836,0.9826,0.9843,0.9845,0.986,0.9828,0.9885,0.9887,0.9889,0.9919,0.9924,0.9928,0,0,0,0,0,0.984,0.9864,0.9855,0.9857,0.9862,0.9872,0.9872,0.986,0.9846,0.9856,0.985,0.9836,0.9857,0.9845,0.9847,0.9862,0.9884,0.9886,0.9889,0.9917,0.9923,0.9928,0,0,0,0,0,0,0.9872,0.9863,0.9853,0.9875,0.9874,0.9867,0.988,0.9867,0.9871,0.9868,0.9853,0.9852,0.987,0.9868,0.9854,0.9887,0.9868,0.9871,0.9889,0.9894,0.9899,0.9899,0.9829,0,0,0,0,0,0.9882,0.989,0.9881,0.9902,0.9902,0.9891,0.9895,0.9885,0.9884,0.9884,0.9879,0.9879,0.9885,0.9889,0.9895,0.9918,0.9916,0.993,0.9934,0.9938,0.9941,0.9952,0.9958,0.9898,0.9898,0.9898,0,0,0.9902,0.9897,0.9904,0.9908,0.9906,0.9915,0.9891,0.9902,0.9908,0.9886,0.99,0.9896,0.9895,0.9915,0.9923,0.9913,0.9957,0.9942,0.9945,0.9945,0.9955,0.9961,0.9966,0.99,0.99,0.9899,0,0,0.9942,0.994,0.9956,0.9955,0.9953,0.9945,0.9949,0.9943,0.9939,0.9954,0.9936,0.9944,0.9955,0.9954,0.9955,0.9994,0.9981,0.9996,1.002,1.0031,1.0036,1.004,1.0053,1.0058,0.9999,0.9999,0.9999,0,0.9967,0.998,0.9966,0.9978,0.9979,0.9959,0.9974,0.9974,0.9974,0.9975,0.9964,0.9977,0.9974,0.9993,1.0002,1.0004,1.0007,0.9997,1.0037,1.004,1.0044,1.0056,1.0061,1.0001,1.0,1.0,1.0,0,1.0011,1.002,1.0033,1.0033,1.0036,1.005,1.0037,1.0042,1.0032,1.0025,1.0039,1.0035,1.0039,1.0042,1.0033,1.0059,1.0053,1.0039,1.0019,1.0052,1.0063,1.0068,1.0003,1.0003,1.0002,1.0002,0,0,1.0073,1.0063,1.0068,1.0067,1.0062,1.0069,1.0081,1.0084,1.0088,1.0088,1.0098,1.0107,1.0094,1.0095,1.0085,1.0095,1.0124,1.008,1.0079,1.0088,1.0152,1.0162,1.0168,1.0115,1.0116,1.0117,1.0152,0,1.0112,1.0132,1.0119,1.0141,1.0148,1.0128,1.0138,1.0136,1.013,1.0135,1.0128,1.0134,1.0117,1.0117,1.0126,1.0119,1.0137,1.0116,1.0123,1.0124,1.0125,1.0174,1.0185,1.0218,1.0156,1.0157,1.0157,0,1.016,1.0161,1.0184,1.0176,1.0179,1.0189,1.0189,1.0195,1.0192,1.0186,1.0187,1.0174,1.0184,1.0164,1.0179,1.0165,1.0167,1.0163,1.0164,1.0165,1.0143,1.0175,1.0229,1.0234,1.0164,1.0164,1.0163,0,1.0202,1.021,1.0224,1.0224,1.0215,1.0222,1.0219,1.0215,1.0217,1.0217,1.0218,1.0221,1.0222,1.0223,1.0211,1.0198,1.0226,1.0206,1.0222,1.0222,1.0229,1.0229,1.0284,1.0231,1.023,1.023,1.023,0,1.0247,1.0261,1.0242,1.0251,1.0267,1.0251,1.0266,1.0261,1.0257,1.0264,1.0246,1.0253,1.0236,1.0241,1.0232,1.0244,1.0245,1.024,1.0238,1.0242,1.0243,1.0243,1.0241,1.0232,1.0231,1.0231,1.0231,0,1.0297,1.0285,1.0299,1.0289,1.0287,1.0299,1.029,1.0297,1.0289,1.0298,1.0299,1.0287,1.0291,1.0279,1.0282,1.0275,1.0293,1.0287,1.0294,1.0292,1.0309,1.0307,1.0366,1.0373,1.0316,1.0316,1.0317,0,1.0326,1.0337,1.0328,1.0331,1.0328,1.0334,1.0336,1.032,1.0322,1.0319,1.0326,1.0329,1.0331,1.034,1.033,1.0332,1.0326,1.0346,1.0326,1.0329,1.0325,1.0325,1.0325,1.035,1.0351,1.0351,1.0352,0,1.0379,1.0372,1.0375,1.0376,1.0378,1.0378,1.0377,1.0381,1.0364,1.0367,1.0372,1.0373,1.0375,1.0378,1.0378,1.0374,1.036,1.0358,1.0362,1.0366,1.037,1.0368,1.0305,1.0357,1.0357,1.0356,1.0356,1.0356,1.042,1.0427,1.0422,1.0426,1.0423,1.0421,1.0427,1.0419,1.0423,1.0423,1.0414,1.042,1.0415,1.0413,1.041,1.0414,1.0405,1.041,1.0412,1.0413,1.0416,1.0369,1.0414,1.0414,1.0414,1.0414,1.0413,0,1.0471,1.0466,1.047,1.0468,1.047,1.0456,1.0454,1.0457,1.0462,1.0459,1.046,1.0464,1.0467,1.0457,1.0458,1.0463,1.0457,1.0464,1.0464,1.0463,1.0425,1.0421,1.0469,1.0469,1.0469,1.0469,1.0469,1.0469,1.0498,1.0511,1.0503,1.0513,1.0508,1.0514,1.0513,1.0511,1.0508,1.0514,1.0516,1.0509,1.0503,1.0503,1.0504,1.0501,1.0502,1.0512,1.0506,1.0471,1.0466,1.046,1.0457,1.0512,1.0512,1.0544,1.0544,1.0545]}]]